Tracking 18852 objects as of 23-Nov-2017
HD Live streaming from Space Station
objects crossing your sky now

OPS 1570

Track OPS 1570 now!
OPS 1570 is classified as:


NORAD ID: 5851
Int'l Code: 1972-010A
Perigee: 35,888.3 km
Apogee: 35,982.6 km
Inclination: 7.2 °
Period: 1,443.3 minutes
Semi major axis: 42306 km
RCS: Unknown
Launch date: March 1, 1972
Source: United States (US)
Launch site: AIR FORCE EASTERN TEST RANGE (AFETR)
aabbcc
Your satellite tracking list
Your tracking list is empty




NASA's NSSDC Master Catalog

Two Line Element Set (TLE):
1 05851U 72010A   17302.63285485 0.00000000  00000-0  00000-0 0    06
2 05851   7.2494 303.4596 0011140 290.7873  69.1054  0.99768416    05
Source of the keplerian elements: McCants